Other Public Products
Issued by NWS Grand Forks, ND

Home | Current Version | Previous Version | Graphics & Text | Print | Product List | Glossary On
Versions: 1 2 3 4 5 6 7 8 9 10 11 12 13 14 15 16 17 18 19 20 21 22 23 24 25 26 27 28 29 30 31 32 33 34 35 36 37 38 39 40 41 42 43 44 45 46 47 48 49 50
000
FPUS83 KFGF 311131
OPUFGF
PRAIRIE TO PINES WEATHER ROUNDUP
NATIONAL WEATHER SERVICE EASTERN NORTH DAKOTA/GRAND FORKS ND
600 AM CDT THU JUL 31 2014

 **SATELLITE DATA USED TO AUGMENT SKY COVER AT AUTOMATED STATIONS**
 *****  WEATHER ACROSS EASTERN NORTH DAKOTA  *****

CITY           SKY/WX    TMP DP  RH WIND       PRES   REMARKS
GRAND FORKS    PTCLDY    58  56  93 W5        30.03S
GRAND FORKS AF CLEAR     60  59  99 W6        30.04S
GRAND CITY NWS   N/A     57 N/A N/A MISG        N/A
BUXTON           N/A     59  59  98 W6          N/A
DEVILS LAKE    CLEAR     57  54  88 N5        30.07R
FARGO          CLEAR     57  54  89 SW3       30.04S
WAHPETON ARPT  MOSUNNY   54  50  87 CALM      30.06R
$$

 *****  WEATHER ACROSS CENTRAL AND WESTERN NORTH DAKOTA  *****

CITY           SKY/WX    TMP DP  RH WIND       PRES   REMARKS
JAMESTOWN      CLEAR     59  55  87 NW3       30.08S
BISMARCK       MOCLDY    58  56  93 CALM      30.10F
MINOT          MOCLDY    58  52  80 S6        30.08F
MINOT AFB      MOCLDY    55  55  99 W2        30.08S
GARRISON         N/A     57  55  93 N6        30.09F
WILLISTON      LGT RAIN  64  59  83 S5        30.08F
DICKINSON      MOCLDY    56  53  90 W7        30.11F
HETTINGER      PTCLDY    52  50  93 W6        30.15S FOG
$$

 *****  OTHER OBSERVATIONS NORTHEAST NORTH DAKOTA  *****

CITY           SKY/WX    TMP DP  RH WIND       PRES   REMARKS
WALHALLA       NOT AVBL
LANGDON        FAIR      50  50 100 W3        30.08R FOG
CAVALIER       FAIR      57  55  94 W6        30.04S
GRAFTON        FAIR      61  57  88 NW7       30.03S
CANDO          FAIR      54  54 100 W5        30.08S
FORT TOTTEN    NOT AVBL
ROLLA          FAIR      52  52 100 W6        30.10S
RUGBY          FAIR      54  54 100 CALM      30.09S
 ***** THE ABOVE OBSERVATIONS ARE NON NWS ARE NOT QUALITY
        CONTROLLED AND MAY MIS-REPORT RAIN FOR SNOW...
$$

 *****  OTHER OBSERVATIONS SOUTHEAST NORTH DAKOTA *****

CITY           SKY/WX    TMP DP  RH WIND       PRES   REMARKS
COOPERSTOWN    NOT AVBL
VALLEY CITY    FAIR      55  55 100 CALM      30.07F
OAKES          NOT AVBL
GWINNER        SUNNY     57  55  94 W8        30.08S
SHEYENNE NWR     N/A     53  52  97 W2        29.95
BUFFALO          N/A     56  53  91 NW5         N/A
WYNDMERE       NOT AVBL
 ***** THE ABOVE OBSERVATIONS ARE NON NWS ARE NOT QUALITY
       CONTROLLED AND MAY MIS-REPORT RAIN FOR SNOW...
$$

  *****  WEATHER ACROSS NORTHERN MINNESOTA  *****

CITY           SKY/WX    TMP DP  RH WIND       PRES   REMARKS
FLAG ISLAND    CLEAR     64  61  88 NW3       30.00S
WARROAD        CLEAR     55  52  88 CALM      30.02S FOG
ROSEAU         CLEAR     57  54  88 CALM      30.02S HAZE
HALLOCK        CLEAR     57  55  94 CALM      30.02S
THF RVR FALLS  CLEAR     57  55  94 CALM      30.03S
HALSTAD          N/A     54  52  92 W3          N/A
FOSSTON        PTCLDY    52  50  93 CALM      30.05S
BAUDETTE       CLEAR     58  57  97 CALM      30.01S
WASKISH        CLEAR     63  59  88 NW3       30.01S
CROOKSTON      PTCLDY    57  54  88 CALM      30.04S
$$
  *****  WEATHER ACROSS CENTRAL AND WEST MINNESOTA  *****

CITY           SKY/WX    TMP DP  RH WIND       PRES   REMARKS
BEMIDJI        CLEAR     55  52  89 W5        30.04R
PARK RAPIDS    PTCLDY    53  52  96 W3        30.05R
WADENA         PTCLDY    55  54  94 W6        30.05S
DETROIT LAKES  PTCLDY    59  57  94 CALM      30.07S
MOORHEAD       PTCLDY    55  55 100 CALM      30.05S
FERGUS FALLS   CLEAR     57  55  94 CALM      30.06S
ELBOW LAKE     FAIR      55  54  96 CALM      30.06S
MORRIS MN      PTCLDY    54  52  94 CALM      30.06R
STAPLES        CLEAR     55  54  94 CALM      30.05S
WHEATON        PTCLDY    57  54  88 W5        30.08S
$$
  *****  WEATHER ELSEWHERE ACROSS MINNESOTA  *****

CITY           SKY/WX    TMP DP  RH WIND       PRES   REMARKS
DULUTH         PTCLDY    57  54  89 NW3       29.99S
INTRNTL FALLS  FOG       48  48 100 NW3       30.00R VSB 1
ELY            FOG       48  46  93 CALM      30.00R VSB 1/4
CLOQUET        CLEAR     57  55  94 W6        30.00S
BRAINERD       MOCLDY    54  53  97 S3        30.04R
HIBBING        PTCLDY    50  47  89 CALM      30.01R FOG
ALEXANDRIA     CLEAR     58  56  93 W3        30.07S
SAINT CLOUD    CLEAR     54  52  93 CALM      30.04S FOG
MINNEAPOLIS    PTCLDY    63  59  87 SW3       30.04R
$$

  *****  WEATHER ACROSS SOUTH DAKOTA  *****

CITY           SKY/WX    TMP DP  RH WIND       PRES   REMARKS
SIOUX FALLS    PTCLDY    53  52  96 N5        30.09S
BROOKINGS      NOT AVBL
WATERTOWN      CLEAR     54  52  93 CALM      30.09S
HURON          PTCLDY    57  55  93 E5        30.06F
SISSETON         N/A     55  53  93 W5        30.06R
ABERDEEN       PTCLDY    56  54  93 CALM      30.09S
MITCHELL       CLOUDY    67  60  78 S5        30.07F
PIERRE         CLEAR     57  54  89 N6        30.06R
MOBRIDGE       CLEAR     61  53  75 E10       30.08R
RAPID CITY     CLEAR     57  47  69 W7        30.16S
$$

  *****  SOME WEATHER IN NEARBY STATES *****

CITY           SKY/WX    TMP DP  RH WIND       PRES   REMARKS
GLASGOW MT     CLEAR     66  49  54 SE20      30.06F
GREAT FALLS MT CLEAR     61  43  51 SW10      30.13S
CHEYENNE WY    CLEAR     50  46  86 W8        30.31F
SCOTTSBLUFF NE CLEAR     56  55  97 N5        30.22R
OMAHA NE       PTCLDY    59  56  89 CALM      30.11S
DES MOINES IA  PTCLDY    60  55  83 CALM      30.09R
DAVENPORT IA   CLEAR     56  55  97 W5        30.06S
CHICAGO IL     PTCLDY    62  56  80 W6        30.02S
EAU CLAIRE WI  CLEAR     58  57  97 SW5       30.00S
LA CROSSE WI   CLEAR     62  59  90 S3        30.02R
$$

  *****  SOME NATIONAL WEATHER *****

CITY           SKY/WX    TMP DP  RH WIND       PRES   REMARKS
LA GUARDIA NY  MOSUNNY   70  55  59 S6        30.08R
RALEIGH NC     MOCLDY    67  64  90 CALM      30.11R
ATLANTA GA     CLOUDY    70  61  73 E8        30.05S
NEW ORLEANS LA PTCLDY    71  65  81 CALM      30.00R
OKLAHOMA CITY  LGT RAIN  68  65  90 NE7       30.06R FOG
ALBUQUERQUE NM MOCLDY    64  56  75 E15       30.28S
SALT LAKE CITY PTCLDY    64  55  72 CALM      30.17R
LOS ANGELES CA PTCLDY    67  62  84 W3        29.91S
BOISE ID       PTCLDY    72  47  40 SE6       30.09S
SEATTLE WA     PTCLDY    66  45  46 N10       30.12S
$$

*** WEATHER ACROSS MANITOBA...SASKATCHEWAN AND ONTARIO ***
                ***ONTARIO***

CITY           SKY/WX    TMP DP  RH WIND       PRES   REMARKS
GERALDTON      MOCLDY    55  52  88 W8        29.85F
THUNDER BAY    PTCLDY    48  48 100 SW6       29.94S
SIOUX LOOKOUT  CLEAR     45  45 100 N3        29.99S FOG
TORONTO        PTCLDY    57  50  77 W2        29.99R
BIG TROUT LK   CLOUDY    52  48  87 N6        29.99R
PICKLE LAKE    PTCLDY    52  46  82 NW5       29.96
DRYDEN         CLEAR     54  52  94 NW2       30.00S
KENORA         MOCLDY    59  52  77 N6        30.02S
$$
                *** MANITOBA***

CITY           SKY/WX    TMP DP  RH WIND       PRES   REMARKS
BRANDON        CLEAR     55  54  94 NW6       30.08S
DAUPHIN        CLEAR     55  54  94 W8        30.07S
ISLAND LAKE    CLEAR     54  50  87 NE2       30.09
PILOT MOUND      N/A     54  52  94 NW5         N/A
THE PAS        CLOUDY    59  59 100 CALM      30.03R
THOMPSON       PTCLDY    59  54  82 E5        30.08R
WINNIPEG       PTCLDY    54  52  94 NW3       30.04R
LYNN LAKE      CLEAR     59  54  82 E2        30.06S
CHURCHILL      MOCLDY    48  46  93 S6        30.12S
GILLAM         CLOUDY    45  45 100 E5        30.12R
$$
                ***SASKATCHEWAN***

CITY           SKY/WX    TMP DP  RH WIND       PRES   REMARKS
ESTEVAN        PTCLDY    59  57  94 E7        30.08F
KINDERSLEY     PTCLDY    59  59 100 NE9       30.01S
LLOYDMINSTER   FOG       59  57  94 CALM      30.06S VSB 3/8
PRINCE ALBERT  FOG       54  54 100 E2        30.08S VSB 1
REGINA         MOCLDY    61  55  82 E10       30.07R


USA.gov is the U.S. government's official web portal to all federal, state and local government web resources and services.